| time (UTC) | temp F | wind direction | speed MPH | gust MPH | rain 1hr in | rain 24hr in | rain mn in | humidity % | barometer mb |
| 20260906223021 | 79 | 0.0 | 1.0 | 0.00 | 0.04 | 0.04 | 73 | 1016.3 | |
| 20260906222020 | 79 | 0.0 | 1.0 | 0.00 | 0.04 | 0.04 | 74 | 1016.0 | |
| 20260906221021 | 79 | 0.0 | 0.0 | 0.00 | 0.04 | 0.04 | 75 | 1015.9 | |
| 20260906220021 | 79 | 0.0 | 1.0 | 0.00 | 0.04 | 0.04 | 73 | 1015.9 | |
| 20260906215020 | 79 | 0.0 | 2.0 | 0.00 | 0.04 | 0.04 | 73 | 1016.0 | |
| 20260906214020 | 79 | 0.0 | 2.0 | 0.00 | 0.04 | 0.04 | 74 | 1016.0 | |
| 20260906213021 | 79 | 0.0 | 2.0 | 0.00 | 0.04 | 0.04 | 74 | 1016.0 | |
| 20260906212040 | 79 | 0.0 | 1.0 | 0.00 | 0.04 | 0.04 | 75 | 1016.2 | |
| 20260906211020 | 79 | 0.0 | 2.0 | 0.00 | 0.04 | 0.04 | 76 | 1015.9 | |
| 20260906210021 | 79 | 0.0 | 1.0 | 0.00 | 0.04 | 0.04 | 81 | 1015.9 | |
| 20260906205041 | 79 | 0.0 | 4.0 | 0.00 | 0.04 | 0.04 | 83 | 1015.8 | |
| 20260906204020 | 78 | 0.0 | 0.0 | 0.00 | 0.04 | 0.04 | 86 | 1015.8 | |
| 20260906203020 | 78 | 0.0 | 0.0 | 0.00 | 0.04 | 0.04 | 86 | 1015.9 | |
| 20260906202021 | 78 | 0.0 | 1.0 | 0.00 | 0.04 | 0.04 | 87 | 1015.7 | |
| 20260906201101 | 78 | 0.0 | 1.0 | 0.00 | 0.04 | 0.04 | 87 | 1015.9 | |
| 20260906200020 | 77 | 0.0 | 2.0 | 0.00 | 0.04 | 0.04 | 89 | 1015.9 | |
| 20260906195022 | 77 | 0.0 | 2.0 | 0.00 | 0.05 | 0.04 | 88 | 1015.9 | |
| 20260906194020 | 77 | 0.0 | 4.0 | 0.00 | 0.05 | 0.04 | 88 | 1016.3 | |
| 20260906193020 | 78 | 0.0 | 1.0 | 0.04 | 0.08 | 0.04 | 87 | 1016.6 | |
| 20260906192020 | 78 | 0.0 | 1.0 | 0.04 | 0.08 | 0.04 | 89 | 1016.5 | |
| 20260906191043 | 78 | 0.0 | 5.0 | 0.04 | 0.08 | 0.04 | 91 | 1016.5 | |
| 20260906190022 | 78 | 0.0 | 2.0 | 0.04 | 0.08 | 0.04 | 91 | 1016.4 | |
| 20260906185022 | 79 | 0.0 | 1.0 | 0.04 | 0.08 | 0.04 | 89 | 1016.5 | |
| 20260906184020 | 82 | 0.0 | 2.0 | 0.04 | 0.08 | 0.04 | 82 | 1016.5 | |
| 20260906183024 | 84 | 0.0 | 1.0 | 0.00 | 0.04 | 0.00 | 76 | 1016.5 | |
| 20260906182522 | 83 | 0.0 | 1.0 | 0.00 | 0.04 | 0.00 | 77 | 1016.3 | |
| 20260906181522 | 83 | 0.0 | 1.0 | 0.00 | 0.04 | 0.00 | 77 | 1016.5 | |
| 20260906180520 | 82 | 0.0 | 2.0 | 0.00 | 0.04 | 0.00 | 78 | 1016.5 | |
| 20260906175522 | 82 | 0.0 | 2.0 | 0.00 | 0.04 | 0.00 | 80 | 1016.8 | |
| 20260906174602 | 82 | 0.0 | 2.0 | 0.00 | 0.04 | 0.00 | 79 | 1017.1 | |
| 20260906173522 | 82 | 0.0 | 2.0 | 0.00 | 0.04 | 0.00 | 79 | 1016.9 | |
| 20260906172520 | 82 | 0.0 | 2.0 | 0.00 | 0.04 | 0.00 | 80 | 1016.9 | |
| 20260906171522 | 82 | 0.0 | 1.0 | 0.00 | 0.04 | 0.00 | 81 | 1016.9 | |
| 20260906170522 | 81 | 0.0 | 1.0 | 0.00 | 0.04 | 0.00 | 82 | 1016.8 | |
| 20260906165542 | 80 | 0.0 | 0.0 | 0.00 | 0.04 | 0.00 | 82 | 1016.9 | |
| 20260906164520 | 80 | 0.0 | 2.0 | 0.00 | 0.04 | 0.00 | 81 | 1017.0 | |
| 20260906163522 | 80 | 0.0 | 1.0 | 0.00 | 0.04 | 0.00 | 82 | 1016.8 | |
| 20260906162522 | 80 | 0.0 | 0.0 | 0.00 | 0.04 | 0.00 | 82 | 1017.0 | |
| 20260906161522 | 81 | 0.0 | 1.0 | 0.00 | 0.04 | 0.00 | 81 | 1016.9 | |
| 20260906160542 | 81 | 0.0 | 1.0 | 0.00 | 0.04 | 0.00 | 81 | 1017.0 | |
| 20260906155524 | 81 | 0.0 | 4.0 | 0.00 | 0.04 | 0.00 | 80 | 1017.1 | |
| 20260906154522 | 81 | 0.0 | 1.0 | 0.00 | 0.04 | 0.00 | 82 | 1017.3 | |
| 20260906153522 | 81 | 0.0 | 2.0 | 0.00 | 0.04 | 0.00 | 81 | 1017.3 | |
| 20260906152522 | 80 | 0.0 | 1.0 | 0.00 | 0.04 | 0.00 | 82 | 1017.3 | |
| 20260906151522 | 80 | 0.0 | 1.0 | 0.00 | 0.04 | 0.00 | 81 | 1017.6 | |
| 20260906150522 | 80 | 0.0 | 1.0 | 0.00 | 0.04 | 0.00 | 82 | 1017.4 | |
| 20260906145522 | 81 | 0.0 | 1.0 | 0.00 | 0.04 | 0.00 | 81 | 1017.5 | |
| 20260906144522 | 81 | 0.0 | 1.0 | 0.00 | 0.04 | 0.00 | 81 | 1017.2 | |
| 20260906143522 | 80 | 0.0 | 2.0 | 0.00 | 0.04 | 0.00 | 83 | 1017.1 | |
| 20260906142522 | 79 | 0.0 | 2.0 | 0.00 | 0.04 | 0.00 | 84 | 1017.0 | |
| 20260906141522 | 79 | 0.0 | 2.0 | 0.00 | 0.04 | 0.00 | 85 | 1017.1 | |
| 20260906140522 | 79 | 0.0 | 0.0 | 0.00 | 0.04 | 0.00 | 85 | 1017.2 | |
| 20260906135602 | 79 | 0.0 | 1.0 | 0.00 | 0.04 | 0.00 | 85 | 1017.0 | |
| 20260906134521 | 80 | 0.0 | 1.0 | 0.00 | 0.04 | 0.00 | 85 | 1016.8 | |
| 20260906133521 | 80 | 0.0 | 1.0 | 0.00 | 0.04 | 0.00 | 85 | 1016.8 | |
| 20260906132522 | 80 | 0.0 | 0.0 | 0.00 | 0.04 | 0.00 | 84 | 1016.7 | |
| 20260906131602 | 80 | 0.0 | 1.0 | 0.00 | 0.04 | 0.00 | 87 | 1016.6 | |
| 20260906130521 | 78 | 0.0 | 0.0 | 0.00 | 0.04 | 0.00 | 88 | 1016.6 | |
| 20260906125521 | 77 | 0.0 | 0.0 | 0.00 | 0.04 | 0.00 | 89 | 1016.7 | |
| 20260906124529 | 77 | 0.0 | 0.0 | 0.00 | 0.04 | 0.00 | 91 | 1016.6 | |
| 20260906123602 | 75 | 0.0 | 0.0 | 0.00 | 0.04 | 0.00 | 95 | 1016.5 | |
| 20260906122522 | 74 | 0.0 | 0.0 | 0.00 | 0.04 | 0.00 | 96 | 1016.6 | |
| 20260906121521 | 73 | 0.0 | 0.0 | 0.00 | 0.04 | 0.00 | 96 | 1016.6 | |
| 20260906120522 | 73 | 0.0 | 0.0 | 0.00 | 0.04 | 0.00 | 96 | 1016.5 | |
| 20260906115521 | 73 | 0.0 | 0.0 | 0.00 | 0.04 | 0.00 | 96 | 1016.4 | |
| 20260906114521 | 73 | 0.0 | 0.0 | 0.00 | 0.04 | 0.00 | 96 | 1016.5 | |
| 20260906113520 | 73 | 0.0 | 0.0 | 0.00 | 0.04 | 0.00 | 96 | 1016.5 | |
| 20260906112541 | 73 | 0.0 | 0.0 | 0.00 | 0.04 | 0.00 | 96 | 1016.3 | |
| 20260906111541 | 73 | 0.0 | 0.0 | 0.00 | 0.04 | 0.00 | 96 | 1016.1 | |
| 20260906110521 | 73 | 0.0 | 0.0 | 0.00 | 0.04 | 0.00 | 96 | 1015.9 | |
| 20260906105520 | 73 | 0.0 | 0.0 | 0.00 | 0.04 | 0.00 | 97 | 1016.0 | |
| 20260906104520 | 73 | 0.0 | 0.0 | 0.00 | 0.04 | 0.00 | 97 | 1015.8 | |
| 20260906103521 | 73 | 0.0 | 0.0 | 0.00 | 0.04 | 0.00 | 97 | 1015.6 | |
| 20260906102521 | 73 | 0.0 | 0.0 | 0.00 | 0.04 | 0.00 | 97 | 1015.5 | |
| 20260906101520 | 73 | 0.0 | 0.0 | 0.00 | 0.04 | 0.00 | 97 | 1015.5 | |
| 20260906100521 | 73 | 0.0 | 0.0 | 0.00 | 0.04 | 0.00 | 97 | 1015.3 | |
| 20260906095541 | 73 | 0.0 | 1.0 | 0.00 | 0.04 | 0.00 | 97 | 1015.1 | |
| 20260906094541 | 72 | 0.0 | 0.0 | 0.00 | 0.04 | 0.00 | 97 | 1015.0 | |
| 20260906093521 | 72 | 0.0 | 0.0 | 0.00 | 0.04 | 0.00 | 97 | 1014.8 | |
| 20260906092521 | 72 | 0.0 | 0.0 | 0.00 | 0.04 | 0.00 | 97 | 1014.7 | |
| 20260906091542 | 72 | 0.0 | 0.0 | 0.00 | 0.04 | 0.00 | 97 | 1014.5 | |
| 20260906090521 | 72 | 0.0 | 0.0 | 0.00 | 0.04 | 0.00 | 97 | 1014.3 | |
| 20260906085521 | 72 | 0.0 | 0.0 | 0.00 | 0.04 | 0.00 | 97 | 1014.2 | |
| 20260906084521 | 73 | 0.0 | 0.0 | 0.00 | 0.04 | 0.00 | 97 | 1014.1 | |
| 20260906083521 | 73 | 0.0 | 0.0 | 0.00 | 0.04 | 0.00 | 97 | 1014.2 | |
| 20260906082521 | 73 | 0.0 | 0.0 | 0.00 | 0.04 | 0.00 | 97 | 1014.2 | |
| 20260906081520 | 73 | 0.0 | 0.0 | 0.00 | 0.04 | 0.00 | 97 | 1014.2 | |
| 20260906080521 | 73 | 0.0 | 0.0 | 0.00 | 0.04 | 0.00 | 97 | 1014.1 | |
| 20260906075542 | 73 | 0.0 | 0.0 | 0.00 | 0.04 | 0.00 | 97 | 1014.1 | |
| 20260906074520 | 73 | 0.0 | 0.0 | 0.00 | 0.04 | 0.00 | 97 | 1014.0 | |
| 20260906073541 | 73 | 0.0 | 0.0 | 0.00 | 0.04 | 0.00 | 97 | 1013.9 | |
| 20260906072520 | 73 | 0.0 | 0.0 | 0.00 | 0.04 | 0.00 | 97 | 1013.9 | |
| 20260906071522 | 73 | 0.0 | 0.0 | 0.00 | 0.04 | 0.00 | 97 | 1014.0 | |
| 20260906070523 | 73 | 0.0 | 0.0 | 0.00 | 0.04 | 0.00 | 97 | 1013.9 | |
| 20260906065520 | 73 | 0.0 | 0.0 | 0.00 | 0.04 | 0.00 | 96 | 1014.1 | |
| 20260906064601 | 73 | 0.0 | 0.0 | 0.00 | 0.04 | 0.00 | 96 | 1014.2 | |
| 20260906063524 | 74 | 0.0 | 0.0 | 0.00 | 0.04 | 0.00 | 97 | 1014.3 | |
| 20260906063020 | 74 | 0.0 | 0.0 | 0.00 | 0.04 | 0.00 | 96 | 1014.3 | |
| 20260906062020 | 74 | 0.0 | 0.0 | 0.00 | 0.04 | 0.00 | 96 | 1014.4 | |
| 20260906061022 | 74 | 0.0 | 0.0 | 0.00 | 0.04 | 0.00 | 96 | 1014.3 | |
| 20260906060021 | 74 | 0.0 | 0.0 | 0.00 | 0.04 | 0.00 | 96 | 1014.3 | |
| 20260906055021 | 74 | 0.0 | 0.0 | 0.00 | 0.04 | 0.00 | 96 | 1014.5 | |
| 20260906054022 | 74 | 0.0 | 0.0 | 0.00 | 0.04 | 0.00 | 95 | 1014.5 | |
| 20260906053022 | 74 | 0.0 | 0.0 | 0.00 | 0.04 | 0.00 | 95 | 1014.8 | |
| 20260906052022 | 74 | 0.0 | 0.0 | 0.00 | 0.04 | 0.00 | 96 | 1015.0 | |
| 20260906051021 | 74 | 0.0 | 0.0 | 0.00 | 0.04 | 0.00 | 96 | 1014.7 | |
| 20260906050022 | 74 | 0.0 | 0.0 | 0.00 | 0.04 | 0.00 | 95 | 1014.9 | |
| 20260906045022 | 74 | 0.0 | 0.0 | 0.00 | 0.04 | 0.00 | 96 | 1014.9 | |
| 20260906044022 | 74 | 0.0 | 0.0 | 0.00 | 0.04 | 0.00 | 96 | 1014.8 | |
| 20260906043020 | 75 | 0.0 | 0.0 | 0.00 | 0.04 | 0.00 | 96 | 1015.0 | |
| 20260906042023 | 75 | 0.0 | 0.0 | 0.00 | 0.04 | 0.00 | 95 | 1015.2 | |
| 20260906041102 | 75 | 0.0 | 0.0 | 0.00 | 0.04 | 0.00 | 95 | 1015.2 | |
| 20260906040024 | 75 | 0.0 | 0.0 | 0.00 | 0.04 | 0.04 | 95 | 1015.2 | |
| 20260906035521 | 75 | 0.0 | 0.0 | 0.00 | 0.04 | 0.04 | 95 | 1015.1 | |
| 20260906034521 | 75 | 0.0 | 0.0 | 0.00 | 0.04 | 0.04 | 95 | 1015.1 | |
| 20260906033521 | 75 | 0.0 | 0.0 | 0.00 | 0.04 | 0.04 | 95 | 1015.2 | |
| 20260906032521 | 75 | 0.0 | 0.0 | 0.00 | 0.04 | 0.04 | 95 | 1015.1 | |
| 20260906031521 | 75 | 0.0 | 0.0 | 0.00 | 0.04 | 0.04 | 95 | 1015.1 | |
| 20260906030521 | 76 | 0.0 | 0.0 | 0.00 | 0.04 | 0.04 | 95 | 1015.2 | |
| 20260906025541 | 76 | 0.0 | 0.0 | 0.00 | 0.04 | 0.04 | 94 | 1015.2 | |
| 20260906024521 | 76 | 0.0 | 0.0 | 0.00 | 0.04 | 0.04 | 94 | 1015.2 | |
| 20260906023521 | 76 | 0.0 | 0.0 | 0.00 | 0.04 | 0.04 | 94 | 1015.1 | |
| 20260906022521 | 76 | 0.0 | 0.0 | 0.00 | 0.04 | 0.04 | 94 | 1014.9 | |
| 20260906021521 | 77 | 0.0 | 0.0 | 0.00 | 0.04 | 0.04 | 94 | 1014.8 | |
| 20260906020521 | 77 | 0.0 | 0.0 | 0.00 | 0.04 | 0.04 | 94 | 1014.8 | |
| 20260906015521 | 77 | 0.0 | 0.0 | 0.00 | 0.04 | 0.04 | 94 | 1014.9 | |
| 20260906014520 | 77 | 0.0 | 0.0 | 0.00 | 0.04 | 0.04 | 95 | 1014.8 | |
| 20260906013522 | 77 | 0.0 | 0.0 | 0.00 | 0.04 | 0.04 | 95 | 1014.9 | |
| 20260906012521 | 77 | 0.0 | 0.0 | 0.00 | 0.04 | 0.04 | 95 | 1014.9 | |
| 20260906011540 | 77 | 0.0 | 0.0 | 0.00 | 0.04 | 0.04 | 95 | 1014.6 | |
| 20260906010521 | 77 | 0.0 | 0.0 | 0.00 | 0.04 | 0.04 | 95 | 1014.5 | |
| 20260906005522 | 77 | 0.0 | 0.0 | 0.00 | 0.04 | 0.04 | 95 | 1014.3 | |
| 20260906004536 | 77 | 0.0 | 0.0 | 0.00 | 0.04 | 0.04 | 95 | 1014.3 | |
| 20260906004021 | 77 | 0.0 | 0.0 | 0.00 | 0.04 | 0.04 | 95 | 1014.2 | |
| 20260906003020 | 77 | 0.0 | 0.0 | 0.00 | 0.04 | 0.04 | 95 | 1014.2 | |
| 20260906002021 | 77 | 0.0 | 0.0 | 0.00 | 0.04 | 0.04 | 94 | 1014.0 | |
| 20260906001020 | 77 | 0.0 | 0.0 | 0.00 | 0.04 | 0.04 | 94 | 1013.6 | |
| 20260906000021 | 78 | 0.0 | 0.0 | 0.00 | 0.04 | 0.04 | 93 | 1013.6 | |
| 20260905235021 | 78 | 0.0 | 0.0 | 0.00 | 0.04 | 0.04 | 93 | 1013.3 | |
| 20260905234021 | 78 | 0.0 | 0.0 | 0.00 | 0.04 | 0.04 | 93 | 1013.2 | |
| 20260905233020 | 79 | 0.0 | 0.0 | 0.00 | 0.04 | 0.04 | 93 | 1013.1 | |
| 20260905232021 | 79 | 0.0 | 0.0 | 0.00 | 0.04 | 0.04 | 92 | 1012.8 | |
| 20260905231023 | 79 | 0.0 | 0.0 | 0.00 | 0.04 | 0.04 | 92 | 1012.7 | |
| 20260905230020 | 79 | 0.0 | 0.0 | 0.00 | 0.04 | 0.04 | 92 | 1012.7 | |
| 20260905225020 | 79 | 0.0 | 0.0 | 0.00 | 0.04 | 0.04 | 92 | 1012.6 | |
| 20260905224021 | 79 | 0.0 | 0.0 | 0.00 | 0.04 | 0.04 | 92 | 1012.8 |